FENGYUN 1C DEB

Satellite information

Favourite Embed

Satellite Type and Status

DEBRISIN ORBIT

Key statistics

Satellite FENGYUN 1C DEB at a glance.

Uptime

9665

Days in orbit

Revolutions

≈ 13.5

Per day

Orbit

SSO

Sun Synchronous Orbit

Inclination

98.8

Latest

Satellite identification and parameters

Extended collection of information and parameters for FENGYUN 1C DEB.

Object identification

Identified? True

Debris? True

Object name: FENGYUN 1C DEB

International designator: 1999-025AZY

Object number (NORAD): 30934

Object ID (CCSDS): 30934

Country: PEOPLES REPUBLIC OF CHINA (PRC)

Current information (Y/N): Y

RCS size: SMALL

Orbital parameters

Period: 106.937 minutes

Inclination: 98.766 deg

SMA: 7462.985 km

Apoapsis: 1337.886 km

Periapsis: 831.814 km

RAAN: 180.8575 deg

Eccentricy: 0.03390551

Argument of periapsis: 206.4837 deg

Mean anomaly: 151.8621 deg

Mean motion: 13.46585383 rev/day

Mean motion (dot): 0.00001063 rev/day2

B* drag term: 0.0012867863 1/REarth

Two-line elements (TLE)

Creation date: Oct. 25, 2025, 3:11 a.m.

Reference frame: TEME

Reference center: EARTH

Epoch: Oct. 24, 2025, 8:53 p.m. UTC

TLE line 0: 0 FENGYUN 1C DEB

TLE line 1: 1 30934U 99025AZY 25297.87033655 .00001063 00000-0 12868-2 0 9993

TLE line 2: 2 30934 98.7660 180.8575 0339055 206.4837 151.8621 13.46585383910501

Live tracking on map

Real-time ground track for satellite FENGYUN 1C DEB.

In-orbit conjunctions

A list of the most updated potential collisions computed for object FENGYUN 1C DEB.

Target Orbit TCA Probability of collision Miss distance Type
FENGYUN 1C DEB SSO 2025-02-23 22:22:42 0.000138116 146.0 (m) DEBRIS
COSMOS 2341 LEO 2024-11-12 22:14:13 0.0001525415 684.0 (m) PAYLOAD

Associated space launch

Chinese polar orbiting meteorological satellite

FENGYUN 1C DEB was lifted into orbit during the mission ‘Long March 4B | Feng Yun 1C’, on board a Long March 4B space rocket.

The launch took place on May 10, 1999, 1:33 a.m. from Launch Complex 7.

For more information about the launch, click the button.

Launch to space Long March 4B | Feng Yun 1C
Long March 4B | Feng Yun 1C

Agency: N/A

Status: Launch Successful

Launch date: May 10, 1999, 1:33 a.m. UTC

Rocket: Long March 4B

Launch pad: Launch Complex 7

Location: Taiyuan Satellite Launch Center, People's Republic of China

...

Latest news about this satellite

There are no fresh news available about this satellite. Check back as we update our databases every day.


Newsletter sign-up

Weekly statistics, charts and insights to help you stay on top of the space industry.